Regional Weather Roundup
Issued by NWS

Home | Current Version | Previous Version | Graphics & Text | Print | Product List | Glossary On
Versions: 1 2 3 4 5 6 7 8 9 10 11 12 13 14 15 16 17 18 19 20 21 22 23 24 25 26 27 28 29 30 31 32 33 34 35 36 37 38 39 40 41 42 43 44 45 46 47 48 49 50
000
ASUS43 KIND 220909
RWRIN

WEATHER ROUNDUP FOR INDIANA
NATIONAL WEATHER SERVICE INDIANAPOLIS IN
500 AM EDT TUE MAY 22 2018

NOTE: "FAIR" INDICATES FEW OR NO CLOUDS BELOW 12,000 FEET WITH NO
SIGNIFICANT WEATHER AND/OR OBSTRUCTIONS TO VISIBILITY.

* - STATION DOES NOT REPORT WEATHER SUCH AS PRECIPITATION OR FOG.

+ - STATION NOT QUALITY CONTROLLED BY THE NATIONAL WEATHER SERVICE.
    USE DATA WITH CAUTION...ESPECIALLY DEWPOINT AND RELATIVE
    HUMIDITY OBSERVATIONS.

INZ001>003-010>013-019-020-221000-
NORTHWEST INDIANA

CITY           SKY/WX    TMP DP  RH WIND       PRES   REMARKS
GARY /AIRPORT/ CLOUDY    54  54 100 CALM      29.98S FOG
KNOX *+        MOCLDY    61  61 100 SE6       29.96F
LA PORTE +     FOG       60  60  99 CALM      29.97S VSB 1/2
MICHIGAN CITY+ CLOUDY    59  59 100 CALM      29.97S FOG
MONTICELLO +   MOCLDY    64  63  96 SW7       29.97F
RENSSELAER +   FAIR      63  59  88 S3        29.97S HAZE
VALPARAISO     FOG       62  62 100 CALM      29.97S VSB 1/4

$$

LMZ046-743>745-221000-
SOUTHERN LAKE MICHIGAN

STATION/POSITION TIME  TEMP    WIND        PRES    WAVE
                       AIR SEA DIR/SP/G            HT
                 (UTC) (F)     (DEG/KT/KT) (MB)    (FT)
BURNS HARBOR     0840   50     300/  9/ 18 1015.9R
5NW MICH CITY    0900   47 53  330/ 12/ 17   N/A     1

$$

INZ004-005-014>016-021>024-221000-
NORTH CENTRAL INDIANA

CITY           SKY/WX    TMP DP  RH WIND       PRES   REMARKS
GOSHEN         CLOUDY    59  57  93 SE3       29.97F FOG
LOGANSPORT +   CLOUDY    63  63 100 SW6       29.99S
PERU/GRISSOM   MOCLDY    64  64 100 SW6       29.98S
ROCHESTER +    CLOUDY    64  64 100 CALM      29.98S FOG
SOUTH BEND     CLOUDY    60  59  96 CALM      29.98S FOG
WARSAW +       CLOUDY    57  57 100 CALM      29.98F FOG

$$

INZ006>009-017-018-025>027-221000-
NORTHEAST INDIANA

CITY           SKY/WX    TMP DP  RH WIND       PRES   REMARKS
ANGOLA *+      CLOUDY    55  54  94 S3        29.98S
AUBURN +       CLOUDY    54  54 100 CALM      30.00S FOG
FORT WAYNE     CLOUDY    59  58  96 CALM      29.99S FOG
HUNTINGTON +   FOG       59  58  96 S3        29.98F VSB 1/4

$$

INZ028-029-035-036-043>045-051>053-221000-
WEST CENTRAL INDIANA

CITY           SKY/WX    TMP DP  RH WIND       PRES   REMARKS
CRAWFORDSVL +  FOG       64  64 100 SW8       29.99F VSB 3/4
GREENCASTLE +  MOCLDY    64  64 100 CALM      30.01S FOG
LAFAYETTE      FAIR      62  62 100 CALM      29.98S FOG
TERRE HAUTE    FAIR      65  65 100 S3        29.99F FOG

$$

INZ030>032-037>040-046>048-054>057-064-065-221000-
CENTRAL INDIANA

CITY           SKY/WX    TMP DP  RH WIND       PRES   REMARKS
ANDERSON       CLOUDY    66  66 100 S6        30.01F FOG
FISHERS *+     CLOUDY   N/A N/A N/A S3        30.01S
FRANKFORT +    MOCLDY    67  66  96 SW3       30.01S FOG
GREENWOOD *+   MOCLDY    64  64  99 SW3       30.02S
INDIANAPOLIS   FAIR      66  65  96 S8        30.00S
-EAGLE CREEK   MOCLDY    66  63  90 CALM      30.00R
KOKOMO +       FAIR      66  65  96 SW7       30.00S
MARION +       MOCLDY    64  64  97 CALM      30.00S FOG
MT COMFORT *+  MOCLDY    64  64 100 S5        30.02R
SHELBYVILLE    CLOUDY    68  65  90 S6        30.01S
ZIONSVILLE +     N/A     63  63 100 CALM      30.01S FOG

$$

INZ033-034-041-042-049-050-058-059-221000-
EAST CENTRAL INDIANA

CITY           SKY/WX    TMP DP  RH WIND       PRES   REMARKS
MUNCIE         CLOUDY    69  66  90 SW6       30.01S FOG
RICHMOND +     FOG       63  63 100 SW6       30.04S VSB 1/2

$$

INZ060-061-067>069-081>083-085>088-221000-
SOUTHWEST INDIANA

CITY           SKY/WX    TMP DP  RH WIND       PRES   REMARKS
EVANSVILLE     FOG       67  67 100 CALM      30.00F VSB 1
HUNTINGBURG +  MOCLDY    67  66  97 SE3       30.02S FOG
WASHINGTON +   FAIR      65  64  94 SE6       30.00F FOG

$$

INZ062-063-066-070>080-084-089>092-221000-
SOUTH CENTRAL AND SOUTHEAST INDIANA

CITY           SKY/WX    TMP DP  RH WIND       PRES   REMARKS
BATESVILLE +   CLOUDY    64  64 100 CALM      30.03S FOG
BEDFORD +      CLOUDY    64  63  94 CALM      30.01S FOG
BLOOMINGTON    MOCLDY    65  65 100 CALM      30.01S
FRENCH LICK *+ FAIR      64 N/A N/A CALM      30.02F
MADISON *+     FAIR      68  66  94 CALM      30.05S
NORTH VERNON + CLOUDY    64  64 100 CALM      30.02S
SEYMOUR +      MOCLDY    68  68 100 CALM      30.02S FOG

$$




USA.gov is the U.S. government's official web portal to all federal, state and local government web resources and services.